星链-35307(STARLINK-35307)

导读

STARLINK-35307是美国SpaceX公司星链(Starlink)星座的组网卫星,于2025年10月16日发射入轨,属于星链全球卫星互联网项目的组成部分。星链项目旨在通过近地轨道卫星星座,为全球偏远地区提供高速低延迟宽带互联网服务,该卫星采用氪离子霍尔推进系统,依托地面测控分阶段完成轨道构型,最终将运行于550公里左右近地轨道,为星座补网增容,助力全球网络覆盖能力提升。

基本信息
目录编号:
66013
目录名称:
STARLINK-35307
国际标识:
2025-232J
轨道中心:
EARTH
卫星名称:
星链-35307
卫星全名:
星链-35307(STARLINK-35307)
卫星状态:
在轨 (已飞行323 天)
发射日期:
2025-10-16 UTC
国别 :
美国 (US)
星等 :
--
轨道信息
数据来源 国际轨道数据
星历时间: 2026-09-04T03:07:49+0800
22小时前
查看轨道信息
半长轴: 6840.745km
偏心率: 0.0002143
轨道倾角: 53.160°
近地点辐角 28.672°
升交点赤经 353.853°
平近点角 331.440°
近地点: 461.142km
远地点: 464.074km
周期: 93.846分钟
每日圈数: 15.344321
详细信息
固有亮度:
5
最大亮度:
2.5
卫星平台:
Starlink V1.0
覆盖范围:
全球
运营商:
太空探索技术公司
运营商所在国:
美国
制造商(研发单位):
太空探索技术公司
制造商所在国:
美国
使用方式:
暂无
卫星简介
Starlink 计划是 SpaceX 推出的全球卫星互联网项目,通过发射低轨道卫星,为全球尤其是偏远地区提供高速、低延迟的互联网服务。自 2019 年起,Starlink 已部署数千颗卫星,旨在缩小全球数字鸿沟,推动互联网普及。该项目还为军事、航空等行业提供通信支持,带来广泛经济效益。
2D轨道图
3D轨道图
轨道高度分析图
轨道倾角分析图
轨道综合分析图
查看轨道综合分析图
交会数据列表
事件ID 空间交会对象 最接近时刻(TCA) 交会距离 交会风险概率(CRP) 交会风险指数(CRI) 操作
CDM_260907-020406-092206-601321
2026-09-07T
02:04:26+0000
1.097 km
极远距离
1.718735E-5 中风险 0.6
CDM_260906-114106-581006-601321
2026-09-06T
11:41:01+0000
2.075 km
极远距离
2.452671E-6 低风险 0.43
CDM_260907-003006-092206-601321
2026-09-07T
00:30:39+0000
2.065 km
极远距离
2.341954E-6 低风险 0.42
CDM_260906-173505-112506-601321
2026-09-06T
17:35:25+0000
2.075 km
极远距离
2.251643E-6 低风险 0.42
CDM_260906-183806-171206-601321
2026-09-06T
18:38:32+0000
1.159 km
极远距离
1.834517E-6 低风险 0.4
CDM_260906-091203-622506-601321
2026-09-06T
09:12:25+0000
2.451 km
极远距离
1.483325E-6 低风险 0.38
CDM_260906-212805-893406-601321
2026-09-06T
21:28:34+0000
2.624 km
极远距离
1.419386E-6 低风险 0.38
CDM_260903-021005-179106-601322
2026-09-03T
02:10:43+0000
2.550 km
极远距离
1.273429E-6 低风险 0.37
CDM_260827-194605-875406-601321
2026-08-27T
19:46:20+0000
2.837 km
极远距离
1.108872E-6 低风险 0.36
CDM_260903-063805-703106-601323
2026-09-03T
06:38:55+0000
2.587 km
极远距离
9.615979E-7 极低风险 0.35